Zurück zum Katalog

COSMOS 505

AktivMilitärLEO
NORAD 6118·PAYLOAD·🇷🇺 Russia

Gestartet Jul 20, 1972 von Plesetsk Cosmodrome

Loading…

Nächste Überflüge (nächste 24 Stunden)

TLE

AktuellSource: Space-Track

Epoche: Sep 14, 2026, 13:57 UTC

1 06118U 72057B   26257.58178208 -.00000024  00000-0 -46041-4 0  9995
2 06118  74.0242  92.1112 0092122  68.2055 308.1798 12.59823489490331

Verfolge COSMOS 505 in Echtzeit mit AllMySat

Download on the App Store